Regional Weather Roundup
Issued by NWS

Home | Current Version | Previous Version | Graphics & Text | Print | Product List | Glossary On
Versions: 1 2 3 4 5 6 7 8 9 10 11 12 13 14 15 16 17 18 19 20 21 22 23 24 25 26 27 28 29 30 31 32 33 34 35 36 37 38 39 40 41 42 43 44 45 46 47 48 49 50
411
ASUS43 KLSX 271507
RWRMO

WEATHER SUMMARY FOR MISSOURI
NATIONAL WEATHER SERVICE SPRINGFIELD MO
900 AM CST MON FEB 27 2017

NOTE: "FAIR" INDICATES FEW OR NO CLOUDS BELOW 12,000 FEET WITH NO
       SIGNIFICANT WEATHER AND/OR OBSTRUCTIONS TO VISIBILITY.
       CURRENT SKY AND/OR WEATHER CONDITIONS ARE NOT AVAILABLE FOR
       CHILLICOTHE AND FARMINGTON.

MOZ001>031-035>038-043-044-053-054-271600-
...NORTHERN AND WESTERN MISSOURI...

CITY           SKY/WX    TMP DP  RH WIND       PRES   REMARKS
KANSAS CTY INT SUNNY     39  36  89 S7        30.04R
KANSAS C DTWN  SUNNY     32  32 100 NE5       30.05S FOG     WCI  27
LEE`S SUMMIT   SUNNY     40  34  79 SE9       30.05R
ST JOSEPH      SUNNY     33  33 100 S8        30.04S FOG     WCI  26
CHILLICOTHE      N/A     32  32 100 SE3       30.09R
KIRKSVILLE     SUNNY     37  36  96 S7        30.09R

$$
MOZ066>068-077>081-088>096-101>105-271600-
...SOUTHWEST MISSOURI...

CITY           SKY/WX    TMP DP  RH WIND       PRES   REMARKS
SPRINGFIELD    SUNNY     46  32  58 SE13      30.05R
JOPLIN         SUNNY     46  35  65 SE7       30.04R
BRANSON        SUNNY     45  32  61 SE8       30.07R

$$
MOZ032>034-039>042-045>050-055>058-069>072-271600-
...CENTRAL MISSOURI...

CITY           SKY/WX    TMP DP  RH WIND       PRES   REMARKS
COLUMBIA       SUNNY     42  36  79 SE8       30.09R
JEFFERSON CITY SUNNY     34  34 100 CALM      30.11R
ROLLA          SUNNY     45  39  79 S7        30.08R
SEDALIA        SUNNY     39  36  89 SE6       30.08S
WHITEMAN AFB   SUNNY     39  39 100 S6        30.06S
WARRENSBURG    SUNNY     34  34 100 SE3       30.07S
OSAGE BEACH    SUNNY     40  33  76 SE6       30.10R

$$
MOZ051-052-059>065-271600-
...EAST CENTRAL MISSOURI...

CITY           SKY/WX    TMP DP  RH WIND       PRES   REMARKS
ST LOUIS INTL  SUNNY     49  37  63 SE7       30.13R
SPIRIT OF STL  SUNNY     46  38  73 CALM      30.12S
ST CHARLES     SUNNY     47  38  71 E6        30.13R

$$
MOZ072>076-082>087-097>100-106>115-271600-
...SOUTH CENTRAL AND SOUTHEAST MISSOURI...

CITY           SKY/WX    TMP DP  RH WIND       PRES   REMARKS
CAPE GIRARDEAU SUNNY     51  43  74 SE10      30.14S
FARMINGTON     SUNNY     47  41  80 S9        30.12S
POPLAR BLUFF   SUNNY     51  45  79 SE8       30.13R
WEST PLAINS    SUNNY     46  40  79 SE6       30.10R

$$



USA.gov is the U.S. government's official web portal to all federal, state and local government web resources and services.